{"data":{"norad_id":59921,"intl_designator":"2024-105E","name":"2024-105E","alt_names":[],"object_type":"PAYLOAD","status":"ACTIVE","operator":null,"country":"PRC","launch_date":"2024-05-30","launch_site_code":"JSC","launch_vehicle":null,"mission":null,"orbit_class":"UNKNOWN","rcs_meters":null,"size_class":null,"mass_kg":null,"dimensions":null,"purposes":[],"wikipedia_slug":null,"has_3d_model":false,"image_url":null,"decayed_at":null,"tle_current":{"epoch":"2026-09-22T23:15:29.616192Z","epoch_age_seconds":62236,"freshness":"FRESH","line1":"1 59921U 24105E   26265.96909278  .00001589  00000+0  97362-4 0  9992","line2":"2 59921  97.5788 281.6913 0030121 208.3881 151.5710 15.11279713127905","mean_motion":15.11279713,"eccentricity":0.0030121,"inclination_deg":97.5788,"raan_deg":281.6913,"arg_perigee_deg":208.3881,"mean_anomaly_deg":151.571,"bstar":9.7362e-5,"rev_number":12790,"period_min":95.283486413081,"perigee_km":511.4812803722,"apogee_km":553.11111203276,"semimajor_km":6910.4331962025,"source":"CELESTRAK","updated_at":"2026-09-23T09:00:20.348373Z"}}}